Flag for Albania Weather past 2 weeks in Durrës, Albania

Now
66 °F

Clear.


Feels Like: 66 °F
Forecast: 72 / 82 °F
Wind: 5 mph from South

Location: Tirana Airport

Current Time: Jul 5, 2015 at 2:31:31 AM

Latest Report: Jul 5, 2015 at 1:50 AM


Visibility: 10 mi

Pressure: 30.09 "Hg

Humidity: 68%

Dew point: 55 °F

Location of DurrësLocation

Historic Weather in Durrës — Graph

°F

Durrës temperature yesterday

Maximum temperature yesterday: 91 °F (at 12:50 PM)
Minimum temperature yesterday: 63 °F (at 3:20 AM)
Average temperature yesterday: 77 °F

Past Weeks' High & Low Weather Summary

 TemperatureHumidityPressure
High93 °F (Jul 3, 2:20 PM)94% (Jun 21, 1:20 AM)30.18 "Hg (Jun 21, 1:20 AM)
Low55 °F (Jun 22, 3:50 AM)26% (Jul 4, 11:50 AM)29.83 "Hg (Jun 20, 12:50 PM)
Average72 °F61%30.00 "Hg
* Reported Jun 20 1:20 AM — Jul 5 1:20 AM, Durrës, Weather by CustomWeather, © 2015

Note: Actual official high and low records may vary slightly from our data, if they occured in-between our weather recording intervals... More about our weather records

Advertising

Durrës weather history for previous 24 hours

 ConditionsComfort  
Time TempWeatherWind HumidityBarometerVisibility
1:20 AM
Sun, Jul 5
68 °FClear.2 mph64%30.09 "Hg10 mi
12:50 AM68 °FClear.3 mph69%30.09 "Hg10 mi
12:20 AM68 °FClear.5 mph69%30.09 "Hg10 mi
11:50 PM
Sat, Jul 4
68 °FClear.5 mph69%30.09 "Hg10 mi
11:20 PM68 °FClear.5 mph69%30.09 "Hg10 mi
10:50 PM70 °FClear.5 mph69%30.09 "Hg10 mi
10:20 PM72 °FClear.2 mph65%30.09 "Hg10 mi
9:50 PM72 °FClear.2 mph61%30.09 "Hg10 mi
9:20 PM73 °FClear.2 mph53%30.09 "Hg10 mi
8:50 PM72 °FSunny.No wind57%30.09 "Hg10 mi
8:20 PM75 °FPassing clouds.6 mph50%30.09 "HgN/A
7:50 PM75 °FSunny.7 mph47%30.09 "Hg10 mi
7:20 PM79 °FSunny.7 mph42%30.09 "Hg10 mi
6:50 PM81 °FPassing clouds.7 mph42%30.09 "HgN/A
6:20 PM82 °FPassing clouds.9 mph37%30.09 "HgN/A
5:50 PM82 °FPassing clouds.12 mph35%30.09 "HgN/A
5:20 PM84 °FPassing clouds.12 mph35%30.09 "HgN/A
4:50 PM86 °FPassing clouds.12 mph35%30.09 "HgN/A
4:20 PM90 °FPassing clouds.12 mph38%30.09 "HgN/A
3:50 PM90 °FPassing clouds.9 mph27%30.09 "HgN/A
3:20 PM90 °FPassing clouds.12 mph27%30.09 "HgN/A
2:50 PM91 °FPassing clouds.12 mph28%30.09 "HgN/A
2:20 PM91 °FPassing clouds.10 mph28%30.09 "HgN/A
1:50 PM91 °FSunny.10 mph28%30.09 "Hg10 mi
1:20 PM91 °FPassing clouds.7 mph30%30.09 "HgN/A
12:50 PM91 °FPassing clouds.7 mph32%30.09 "HgN/A
12:20 PM90 °FSunny.3 mph26%30.12 "Hg10 mi
11:50 AM90 °FSunny.2 mph26%30.12 "Hg10 mi
11:20 AM88 °FSunny.2 mph31%30.12 "Hg10 mi
10:50 AM90 °FSunny.No wind33%30.12 "Hg10 mi
10:20 AM88 °FPassing clouds.3 mph35%30.12 "HgN/A
9:50 AM84 °FSunny.2 mph37%30.12 "Hg10 mi
9:20 AM81 °FSunny.2 mph48%30.12 "Hg10 mi
8:50 AM77 °FSunny.2 mph54%30.12 "Hg10 mi
8:20 AM77 °FSunny.2 mph54%30.12 "Hg10 mi
7:50 AM75 °FSunny.No wind61%30.12 "Hg10 mi
7:20 AM72 °FSunny.2 mph73%30.12 "Hg10 mi
6:50 AM68 °FSunny.3 mph78%30.12 "Hg10 mi
6:20 AM64 °FPassing clouds.3 mph88%30.12 "HgN/A
5:50 AM63 °FClear.3 mph88%30.12 "Hg10 mi
5:20 AM63 °FClear.No wind88%30.12 "Hg10 mi
4:50 AM64 °FClear.2 mph88%30.12 "Hg10 mi
4:20 AM63 °FClear.No wind88%30.12 "Hg10 mi
3:50 AM63 °FClear.No wind94%30.12 "Hg10 mi
3:20 AM63 °FClear.No wind88%30.12 "Hg10 mi
2:50 AM64 °FClear.2 mph83%30.12 "Hg10 mi
2:20 AM66 °FClear.2 mph83%30.12 "Hg10 mi
Weather by CustomWeather, © 2015

See weather overviewHow to use our weather pages